Location: Black Creek
(40.9000°S, 175.5500°E)
Time: 08:54:04
(UTC+00:00)

Explorer 7 - Pass Details

Date: 15 November 2024
Orbit: 455 x 598 km, 50.3° (Epoch: 07 December)

Event Time Altitude Azimuth Distance (km) Brightness Sun altitude
Rises 08:28:51 0° 236° (SW) 2,607 12.3 -12.6°
Reaches altitude 10° 08:31:06 10° 234° (SW) 1,696 10.8 -12.9°
Maximum altitude 08:34:55 75° 148° (SSE) 502 6.6 -13.5°
Enters shadow 08:37:01 24° 65° (ENE) 1,016 7.6 -13.8°
